ONEWEB-0020 (45133 NORAD) Tracking and Keplerian Element Data

This shows tracking and keplerian element data for the satellite.

Feedback or suggestion? Click here.




ElementValue
Catalog45133
NameONEWEB-0020
Epoch Orbit3905
Epoch Day298.25001157
Epoch Year2020
RAAN86.2408
Inclination87.9504
Eccentricity0.00234
Argument of Perigee112.2088
Mean Anonmoly221.6139
Mean Motion13.29439765
Decay Rate1.3E-07
L11 45133U 20008C 20298.25001157 .00000013 00000-0 00000+0 0 9991
L22 45133 87.9504 86.2408 0023400 112.2088 221.6139 13.29439765 39050

Live tracking and technical data element details for ONEWEB-0020 (NORAD 45133). ONEWEB-0020 can be tracked NOW for your location showing map with azimuth and elevation plus other details from your city location.

Track the satellite on the map from your city or location and see movement details for azimuth, elevation, latitude, longitude, range, height, and movement on the map or in text.







IsCatalogInMostPopularTable: catalog: 45133, numindb: 54
Update: records affected: 1



GetName: 45133 ONEWEB-0020

Hit Count: updated at: Sat, 24 Oct 2020 23:23:49 GMT